SCP
0 0 0 0 0 0 0 0 0 0 0 0 0 0 0 0 0 0 0 0 0 0 0 0 0 0 0 0 0 0 0 0 0 0 0 0 0 0 0 0 0 0 0
0 0 0 0 0 0 0 0 0 0 0 0 0 0 0 0 0 0 0 0 0 0 0 0 0 0 0 0 0 0 0 0 0 0 0 0 0 0 0 0 0 0 0
0 0 0 0 0 0 0 0 0 0 0 0 0 0 0 0 0 0 0 0 0 0 0 0 0 0 0 0 0 0 0 0 0 0 0 0 0 0 0 0 0 0 0
0 0 0 0 0 0 0 0 0 0 0 0 0 0 0 0 0 0 0 0 0 0 0 0 0 0 0 0 0 0 0 0 0 0 0 0 0 0 0 0 0 0 0
0 0 0 0 0 0 0 0 0 0 0 0 0 0 0 0 0 0 0 0 0 0 0 0 0 0 0 0 0 0 0 0 0 0 0 0 0 0 0 0 0 0 0
0 0 0 0 0 0 0 0 0 0 0 0 0 0 0 0 0 0 0 0 0 0 0 0 0 0 0 0 0 0 0 0 0 0 0 0 0 0 0 0 0 0 0
0 0 0 0 0 0 0 0 0 0 0 0 0 0 0 0 0 0 0 0 0 0 0 0 0 0 0 0 0 0 0 0 0 0 0 0 0 0 0 0 0 0 0
0 0 0 0 0 0 0 0 0 0 0 0 0 0 0 0 0 0 0 0 0 0 0 0 0 0 0 0 0 1 0 0 0 0 0 0 0 0 0 0 0 0 0
0 0 0 0 0 0 0 0 0 0 0 0 0 0 0 0 0 0 0 0 0 0 0 -0 -0 0 0 0 0 0 0 0 0 0 0 0 0 0 0 0 0 0 0
0 0 0 0 0 0 0 0 0 0 0 0 0 0 0 0 0 0 0 0 -0 -0 -0 -0 -0 0 0 0 0 0 0 0 0 0 0 0 0 0 0 0 0 0 0
0 0 0 0 0 0 0 0 0 0 0 0 0 0 0 0 0 0 -0 -0 -0 -0 -0 -0 -0 0 0 0 0 0 0 0 0 0 0 0 0 0 0 0 0 0 0
0 0 0 0 0 0 0 0 0 0 0 0 0 0 0 0 -0 -0 -0 -0 -0 -0 -0 -0 -0 0 0 0 0 0 0 0 0 0 0 0 0 0 0 0 0 0 0
0 0 0 0 0 0 0 0 0 0 0 0 0 0 0 0 -0 -0 -0 -0 -0 -0 -0 -0 0 0 0 0 0 0 -0 0 0 0 0 0 0 0 0 0 0 0 0
1 1 1 0 0 0 0 0 0 0 0 0 0 0 0 0 -0 -0 -0 -0 -0 -0 -0 -0 0 0 0 0 0 -0 -0 0 0 0 0 0 0 0 0 0 0 0 0
1 1 1 1 0 0 0 0 0 0 0 0 0 0 -0 -0 -0 -0 -0 -0 -0 -0 -0 -0 0 0 0 0 0 -0 0 0 0 0 0 0 0 0 0 0 0 0 0
1 1 1 0 0 0 0 0 0 0 0 0 0 -0 -0 -0 0 -0 -0 -0 -0 -0 -0 0 0 0 0 0 0 -0 0 0 0 0 0 0 0 0 0 0 0 0 0
1 1 0 0 0 0 0 1 1 0 0 0 0 0 -0 0 0 0 -0 -0 -0 0 0 0 0 0 0 0 0 -0 0 0 0 0 0 0 0 0 0 0 0 0 0
1 1 0 0 0 0 1 1 1 0 0 0 0 0 0 0 0 0 0 0 0 0 0 0 0 0 0 0 0 0 -0 -0 -0 0 0 0 0 0 0 0 0 0 0
1 1 1 0 0 0 0 0 1 0 0 0 0 0 0 0 0 0 0 0 0 0 0 0 0 0 0 0 0 0 -0 -0 -0 -0 0 0 0 0 0 0 0 0 0
1 1 1 0 0 0 0 0 0 0 0 0 0 0 0 0 0 0 0 0 0 0 0 0 0 0 0 0 0 0 0 -0 -0 -0 -0 0 0 0 0 0 0 0 0
1 1 0 0 0 0 0 0 0 0 0 0 0 0 0 0 0 0 0 0 0 0 0 0 0 0 0 0 0 0 0 0 0 0 -0 -0 0 0 0 0 0 0 0
0 0 0 0 0 0 0 0 0 0 0 0 0 0 0 0 0 0 0 0 0 0 0 0 0 0 0 0 0 0 0 0 0 0 0 0 0 0 0 0 0 0 0
0 0 0 0 0 0 0 0 0 0 0 0 0 0 0 0 0 0 0 0 0 0 0 0 0 0 0 0 0 0 0 0 0 0 0 0 0 0 0 0 0 0 0
0 0 0 0 0 0 0 0 0 0 0 0 0 0 0 0 0 0 0 0 0 0 0 0 0 0 0 0 0 0 0 0 0 0 0 0 0 0 0 0 0 0 0
0 0 0 0 0 0 0 0 0 0 0 0 0 0 0 0 0 0 0 0 0 0 0 0 0 0 0 0 0 0 0 0 0 0 0 0 0 0 0 0 0 0 0
0 0 0 0 0 0 0 0 0 0 0 0 0 0 0 0 0 0 0 0 0 0 0 0 0 0 0 0 0 0 0 0 0 0 0 0 0 0 0 0 0 0 0
Wind_Speed
4 6 10 11 10 10 10 10 11 11 11 11 12 11 12 11 11 11 10 12 13 15 15 12 12 12 11 11 11 12 11 10 10 9 8 9 9 10 10 10 10 6 8
8 6 10 10 10 10 10 10 11 12 13 12 12 12 11 11 11 12 11 12 13 14 14 12 12 11 11 10 11 13 13 12 11 10 10 8 8 9 10 9 7 6 9
9 7 9 11 10 10 10 11 11 12 14 13 12 11 11 12 12 12 13 13 13 14 13 11 11 10 10 10 11 12 12 13 14 14 11 5 5 9 9 6 6 9 9
9 6 5 11 11 10 10 11 11 13 14 13 12 11 11 11 12 12 13 14 14 13 11 10 10 10 10 9 10 11 13 12 13 13 7 4 5 8 8 7 6 8 9
9 6 7 12 11 10 10 11 11 13 13 13 12 12 11 12 12 12 12 13 14 12 10 9 8 9 9 8 9 10 11 12 12 9 4 4 4 8 8 8 7 8 9
8 5 8 11 11 11 11 11 12 13 14 13 13 12 11 11 12 12 11 13 13 11 9 8 7 8 8 8 8 8 9 12 9 5 4 5 5 10 10 9 9 7 8
8 6 8 12 12 12 12 13 12 13 13 13 13 12 11 11 12 12 12 13 12 10 9 7 6 7 7 8 9 9 13 13 7 4 4 4 6 13 12 10 9 8 7
10 7 7 11 12 12 13 14 14 13 13 13 13 12 10 10 12 11 12 12 11 9 8 7 6 7 8 9 11 15 16 14 6 4 4 3 8 12 13 11 9 8 6
8 7 6 6 9 11 12 14 14 13 13 13 12 11 10 10 11 11 11 10 10 8 7 5 6 7 8 9 12 17 16 13 5 3 4 3 8 10 10 11 10 8 6
7 6 5 4 4 5 6 11 13 13 14 13 12 10 9 8 8 9 9 9 9 8 7 4 3 5 8 10 14 16 15 11 5 4 3 3 7 8 8 9 8 8 7
7 6 6 5 5 4 4 7 10 12 13 13 11 11 8 3 3 5 6 9 8 7 6 3 2 6 10 10 14 15 11 4 3 3 2 6 7 8 8 8 7 8 7
10 8 8 8 7 5 5 4 4 5 6 5 4 4 4 3 3 5 7 10 8 6 4 2 3 6 7 5 7 9 4 4 3 3 3 9 9 9 9 8 8 8 8
13 13 11 10 9 7 5 4 2 2 3 3 4 4 4 3 2 2 2 3 3 3 2 2 3 4 4 3 4 3 3 4 3 4 5 10 10 10 10 9 9 9 9
15 16 15 13 11 9 7 4 4 3 3 3 4 4 4 3 2 2 2 2 2 2 1 3 3 4 2 5 6 5 4 4 4 3 6 12 11 11 11 10 10 10 10
16 14 14 14 13 9 9 6 5 5 6 5 5 4 4 4 4 4 3 2 2 2 2 3 3 2 4 5 7 6 5 5 6 4 5 14 14 14 12 11 11 11 11
15 12 12 11 10 7 8 9 8 6 5 5 6 6 6 5 6 5 4 3 3 2 2 2 4 2 2 4 6 6 5 5 5 5 5 9 15 16 16 15 14 14 13
9 6 10 12 13 12 9 11 10 9 8 6 7 8 7 6 6 5 4 4 5 4 4 2 4 2 3 4 5 5 5 4 4 5 5 5 8 13 17 18 17 16 16
16 12 12 13 14 15 13 12 10 9 9 7 7 7 7 7 7 7 5 5 5 5 6 4 3 2 2 4 3 3 4 3 4 4 4 4 4 5 10 16 17 18 18
16 16 13 9 9 10 11 9 9 8 8 7 6 6 5 8 9 9 7 5 6 6 6 6 4 2 3 4 4 3 4 3 3 3 4 4 4 4 4 11 15 16 17
10 10 10 6 4 4 2 2 5 5 4 4 4 5 6 7 9 7 7 7 6 6 6 7 6 3 3 4 5 3 3 4 4 3 3 3 3 4 4 5 6 8 15
6 6 6 7 6 5 3 2 4 4 2 2 3 6 5 6 6 6 5 6 6 6 8 9 6 5 2 2 4 3 4 4 4 3 3 3 4 4 5 5 4 4 6
4 3 2 4 6 7 5 2 2 2 2 2 3 4 6 5 7 9 9 7 8 7 7 8 5 4 2 3 4 4 2 2 3 3 2 4 4 4 5 5 5 5 4
4 3 2 3 4 4 4 2 3 2 1 1 2 3 6 8 6 9 9 8 8 8 8 7 6 5 5 3 4 5 5 4 2 1 2 2 4 5 5 4 5 5 5
3 3 4 4 3 3 5 4 4 3 3 2 3 2 2 6 9 7 8 7 6 7 8 8 8 5 6 5 2 1 3 5 4 3 1 1 3 4 4 4 4 4 5
5 4 4 4 3 3 3 4 4 3 3 3 3 4 3 1 5 5 6 7 6 5 4 4 6 6 4 6 5 3 2 2 2 5 3 2 2 2 2 3 3 3 3
6 6 5 5 5 5 4 4 5 6 7 6 6 5 3 1 1 2 4 2 5 5 3 3 3 5 6 4 4 4 5 4 4 4 4 4 3 1 2 2 3 3 3
Wind_Direction
181 182 170 160 148 140 139 140 140 134 129 127 123 116 110 113 112 105 104 100 103 100 96 94 88 84 81 76 72 75 75 73 77 78 75 76 64 54 62 68 63 69 85
161 169 164 156 147 143 141 141 141 141 134 130 125 120 115 114 114 117 113 107 106 103 103 96 92 89 87 85 75 66 67 72 81 84 73 57 65 72 77 79 72 87 94
145 158 165 151 146 145 143 142 144 140 133 132 127 119 116 116 118 120 118 117 113 106 103 100 96 90 83 81 74 66 73 79 80 73 61 35 56 84 92 92 92 105 101
144 148 155 147 145 146 145 145 145 137 134 132 130 123 118 118 117 119 121 122 115 111 108 102 93 89 85 77 71 70 90 84 77 69 56 31 52 75 93 102 109 109 106
141 146 158 147 145 145 147 146 141 136 133 134 134 127 122 119 115 116 119 123 117 113 108 97 86 83 82 78 67 78 96 89 79 67 47 48 54 72 85 100 106 116 111
135 142 143 145 146 144 143 141 139 139 137 138 137 131 125 121 121 116 119 125 121 113 108 98 86 78 75 74 65 57 94 98 81 61 41 37 50 71 77 86 97 103 105
136 132 139 147 147 145 140 139 140 139 139 141 135 127 126 125 123 120 117 122 121 117 109 96 83 78 78 71 44 51 97 94 75 56 45 36 56 66 70 79 88 86 91
134 132 141 148 148 146 143 144 143 145 145 143 131 129 127 124 122 121 117 121 120 109 100 94 90 91 85 63 53 79 95 87 66 45 39 43 66 65 62 65 74 80 84
132 139 135 145 148 149 149 148 146 148 149 147 141 136 130 123 119 121 124 127 124 111 99 94 101 100 82 58 68 86 85 82 65 35 33 29 68 67 61 57 56 64 70
141 137 131 138 141 142 154 154 153 154 157 155 149 147 139 130 125 129 130 136 140 121 104 94 84 78 63 53 83 86 76 67 50 29 7 51 70 78 71 59 52 52 58
145 149 156 153 146 142 153 165 163 164 166 161 160 159 143 116 127 132 144 152 146 130 117 96 49 36 40 47 85 83 74 56 44 24 359 58 71 80 77 68 61 54 54
161 174 173 166 159 158 166 161 160 164 156 153 160 152 137 146 160 164 170 160 152 143 124 86 26 26 31 45 80 81 71 62 37 16 31 57 64 73 77 71 65 61 59
171 178 183 177 171 165 163 149 149 155 145 150 169 165 150 152 176 165 146 151 144 133 89 51 355 10 11 65 93 81 73 65 47 18 39 58 61 64 66 66 64 61 61
175 183 180 177 173 171 155 157 154 167 155 160 188 182 162 155 158 169 174 175 171 149 118 62 12 2 47 105 108 93 72 66 55 34 41 57 60 59 56 56 60 63 62
178 177 182 176 177 170 153 158 159 178 176 175 187 191 179 162 167 180 189 185 197 194 147 104 64 51 125 108 100 105 91 74 61 45 41 55 57 62 63 61 60 64 67
173 171 168 177 175 176 169 163 166 178 179 178 186 192 192 170 166 174 187 190 194 201 110 139 101 123 105 103 103 110 103 85 75 55 44 52 54 57 59 59 59 62 66
140 142 146 174 186 179 193 177 167 179 176 184 190 195 182 174 173 151 184 191 184 172 145 140 115 150 111 101 102 113 111 107 104 82 59 53 46 49 54 54 53 58 64
141 162 171 185 191 180 184 188 174 175 174 183 186 198 185 169 164 146 169 188 176 158 145 146 125 125 113 107 102 112 109 124 128 108 85 68 56 41 46 53 46 44 51
165 175 176 184 183 184 182 180 169 167 184 189 180 186 180 157 166 155 168 179 168 159 145 150 124 126 122 117 119 116 107 107 125 122 111 96 84 66 41 54 48 46 46
176 181 174 172 169 166 145 150 151 156 191 204 188 183 185 163 169 153 160 165 159 146 137 141 128 121 132 141 115 86 76 83 95 105 106 87 81 74 55 39 32 34 43
158 179 184 171 155 135 138 147 151 166 173 224 217 189 187 168 180 140 151 151 148 147 151 134 115 117 102 114 99 67 33 35 56 68 87 90 86 86 69 50 35 22 23
138 162 189 169 150 159 159 157 122 145 184 203 198 178 176 169 165 146 150 153 150 151 137 117 112 127 134 181 127 114 72 14 12 30 72 101 99 95 79 63 48 33 18
129 156 166 177 163 151 132 152 124 140 189 143 143 172 160 139 134 134 144 144 152 155 150 150 149 167 143 191 180 140 150 186 167 35 34 77 109 98 92 79 62 39 26
145 141 148 170 184 174 163 181 173 168 196 170 164 145 110 141 135 145 144 138 144 152 164 174 165 165 146 161 196 127 125 154 147 138 63 34 77 105 112 95 80 58 43
162 178 188 175 189 214 198 195 173 142 112 105 104 87 71 26 120 147 143 143 150 143 149 176 170 167 162 167 170 143 121 115 136 132 151 157 76 76 110 108 103 83 57
173 182 183 181 202 197 195 189 160 151 135 125 107 90 94 192 46 59 89 142 154 143 154 182 202 193 192 179 183 165 158 167 178 148 146 155 135 124 120 119 118 101 70